Regional Weather Roundup
Issued by NWS

Home | Current Version | Previous Version | Graphics & Text | Print | Product List | Glossary On
Versions: 1 2 3 4 5 6 7 8 9 10 11 12 13 14 15 16 17 18 19 20 21 22 23 24 25 26 27 28 29 30 31 32 33 34 35 36 37 38 39 40 41 42 43 44 45 46 47 48 49 50
000
ASUS45 KABQ 251710
RWRNM
NEW MEXICO REGIONAL WEATHER ROUNDUP
NATIONAL WEATHER SERVICE ALBUQUERQUE NM
1100 AM MDT SUN JUN 25 2017

NOTE: "FAIR" MEANS FEW OR NO CLOUDS BELOW 12,000 FEET AGL WITH NO
       SIGNIFICANT WEATHER OR OBSTRUCTIONS TO VISION.

      THIS PRODUCT IS RELEASED AS TWO VERSIONS.  ONE VERSION NEAR
      THE TOP OF THE HOUR CONTAINING PRELIMINARY DATA FROM ALBUQUERQUE
      AND OTHER STATIONS.  A FINAL VERSION WITH ADDITIONAL DATA IS
      ISSUED ABOUT 10 MINUTES AFTER THE HOUR.

NMZ501-503-504-510>518-251800-
NORTHWEST PLATEAU/NORTHCENTRAL MOUNTAINS

CITY           SKY/WX    TMP DP  RH WIND       PRES   REMARKS
FARMINGTON     FAIR      81  49  32 SE9       30.25F
LOS ALAMOS     FAIR      68  50  51 S13G23    30.43F
SANTA FE       FAIR      76  55  48 S12       30.37F
TAOS           FAIR      70  46  43 W8          N/A
ANGEL FIRE       N/A     66  50  56 W12G17    30.49F

$$
NMZ402-403-502-505>509-251800-
WESTCENTRAL MOUNTAINS/SOUTHWEST MOUNTAINS

CITY           SKY/WX    TMP DP  RH WIND       PRES   REMARKS
GALLUP         FAIR      84  42  22 SW15      30.31F
GRANTS         FAIR      80  46  29 SE15G21   30.35F
SILVER CITY    FAIR      77  55  46 E8        30.32S

$$
NMZ407-409-411-412-251800-
SOUTHERN DESERTS

CITY           SKY/WX    TMP DP  RH WIND       PRES   REMARKS
DEMING         FAIR      81  54  39 E7        30.24S
LAS CRUCES     FAIR      84  59  42 E9        30.26F
HOLLOMAN AFB   FAIR      85  58  40 S12       30.25F
ALAMOGORDO     FAIR      86  57  37 SW9       30.24F
T OR C         FAIR      81  52  36 S12       30.27F

$$
NMZ519>523-251800-
CENTRAL VALLEYS/CENTRAL HIGHLANDS

CITY           SKY/WX    TMP DP  RH WIND       PRES   REMARKS
ALBUQUERQUE    FAIR      79  51  37 SW9       30.31F
DOUBLE EAGLE   MOSUNNY   79  50  36 SE12      30.34F
MORIARTY ARPT  FAIR      78  54  43 S12G17    30.39S
CLINES CORNERS PTSUNNY   74  53  48 S12G17    30.44F
BELEN          FAIR      84  49  29 S15       30.29F
SOCORRO        FAIR      81  53  37 SE20G26   30.27F

$$
NMZ524>526-539-540-251800-
SOUTHCENTRAL MOUNTAINS

CITY           SKY/WX    TMP DP  RH WIND       PRES   REMARKS
RUIDOSO        PTSUNNY   70  57  64 SE9       30.45S

$$
NMZ527>531-251800-
NORTHEAST HIGHLANDS/NORTHEAST PLAINS

CITY           SKY/WX    TMP DP  RH WIND       PRES   REMARKS
LAS VEGAS      PTSUNNY   67  56  67 SE18G26   30.42F
RATON          PTSUNNY   68  59  73 S14       30.37F
CLAYTON        CLOUDY    64  62  93 S15       30.35F

$$
NMZ532>537-251800-
EASTCENTRAL PLAINS

CITY           SKY/WX    TMP DP  RH WIND       PRES   REMARKS
SANTA ROSA     CLOUDY    67  62  82 SE8       30.34S
TUCUMCARI      CLOUDY    69  64  84 SE8       30.31F
CANNON AFB     CLOUDY    69  69 100 SE10      30.35F
CLOVIS AIRPORT PTSUNNY   75  62  64 S15G21    30.34F

$$
NMZ028-029-538-251800-
SOUTHEAST PLAINS

CITY           SKY/WX    TMP DP  RH WIND       PRES   REMARKS
ROSWELL        PTSUNNY   82  61  48 S15G22    30.26F
ARTESIA        FAIR      82  63  51 SE18      30.26F
CARLSBAD       FAIR      81  64  56 S12G23    30.24F
HOBBS          CLOUDY    73  64  73 SE7       30.31S


$$



USA.gov is the U.S. government's official web portal to all federal, state and local government web resources and services.